Amsterdam, Netherlands

12:17 PM CEST on 六月 27, 2017 (GMT +0200)
Schiphol

天気 に付いての歴史 EHAM - 六月, 2017

Change the Weather History Date:

月曜日, 六月 19, 2017

  Actual Average Record
Temperature  
平均温度 74 °F -  
最高温度 85 °F 67 °F 91 °F (2000)
最低温度 62 °F 53 °F 44 °F (1999)
Cooling Degree Days 8    
Growing Degree Days 24 (Base 50)    
Moisture  
露点温度 62 °F    
Average Humidity 63    
Maximum Humidity 94    
Minimum Humidity 35    
降水確率  
降水確率 0.00 インチ - - ()
海面圧  
海面圧 30.11 インチ    
 
風速 5 Mph ()    
最大風速 15 Mph    
Max Gust Speed -    
視程 12.9 マイル    
イベント      
Averages and records for this station are not official NWS values.
T = Trace of Precipitation, MM = Missing Value Source: Averaged Metar Reports

Daily Weather History Graph

Daily Weather History Graph

Search for Another Location

Airport or City:

Trip Planner

Search our weather history database for the weather conditions in past years. The results will help you decide how hot, cold, wet, or windy it might be!

Date:

天文

Jun. 19, 2017 入り
実時間 5:18 AM CEST 10:06 PM CEST
常用薄明 4:29 AM CEST 10:55 PM CEST
航海薄明 3:07 AM CEST 12:16 AM CEST
天文薄明 Sun does not set Sun does not set
2:46 AM CEST (6/19) 3:57 PM CEST (6/19)
可視光の長さ 18h 26m
可照時間
16h 47m
二十六夜, 29% of the Moon is Illuminated
6月 19
二十六夜
6月 24
新しい
7月 1
上弦
7月 9
満月
7月 16
第 4 四半期

Hourly Weather History & Observations

時間 (CEST) 温度 体感気温(暑さ) 露点温度 湿度 気圧 視程 Wind Dir 風速 突風の速度 Precip イベント 現在の気象状況
12:00 AM 69 °F - 60 °F 67% 30.21 インチ 28 マイル 北北東 6.7 Mph - -   所により曇
12:25 AM 68.0 °F - 60.8 °F 78% 30.18 インチ - 北東 6.9 Mph - N/A  
12:55 AM 68.0 °F - 60.8 °F 78% 30.18 インチ - 北東 8.1 Mph - N/A  
1:00 AM 69 °F - 62 °F 74% 30.20 インチ 22 マイル 北東 8.9 Mph - -   所により曇
1:25 AM 66.2 °F - 62.6 °F 88% 30.18 インチ - 北東 6.9 Mph - N/A  
1:55 AM 66.2 °F - 62.6 °F 88% 30.18 インチ - 北東 6.9 Mph - N/A  
2:00 AM 66 °F - 62 °F 84% 30.19 インチ 19 マイル 北東 6.7 Mph - -   所により曇
2:25 AM 66.2 °F - 62.6 °F 88% 30.18 インチ - 東北東 5.8 Mph - N/A  
2:55 AM 66.2 °F - 62.6 °F 88% 30.18 インチ - 東北東 3.5 Mph - N/A  
3:00 AM 66 °F - 64 °F 89% 30.18 インチ 19 マイル 東北東 4.5 Mph - -   所により曇
3:25 AM 66.2 °F - 62.6 °F 88% 30.15 インチ - 東北東 3.5 Mph - N/A  
3:55 AM 64.4 °F - 62.6 °F 94% 30.15 インチ - 3.5 Mph - N/A  
4:00 AM 65 °F - 63 °F 89% 30.17 インチ 16 マイル 東北東 4.5 Mph - -  
4:25 AM 62.6 °F - 60.8 °F 94% 30.15 インチ - 4.6 Mph - N/A  
4:55 AM 64.4 °F - 62.6 °F 94% 30.15 インチ - 2.3 Mph - N/A  
5:00 AM 65 °F - 63 °F 91% 30.17 インチ 18 マイル 東北東 2.2 Mph - -   所により曇
5:25 AM 64.4 °F - 62.6 °F 94% 30.15 インチ - 北北東 2.3 Mph - N/A  
5:55 AM 64.4 °F - 62.6 °F 94% 30.15 インチ - 東北東 2.3 Mph - N/A  
6:25 AM 66.2 °F - 62.6 °F 88% 30.15 インチ - 東北東 2.3 Mph - N/A  
6:55 AM 68.0 °F - 62.6 °F 83% 30.15 インチ - 東北東 2.3 Mph - N/A  
7:00 AM 69 °F - 64 °F 79% 30.16 インチ 18 マイル 2.2 Mph - -   所により曇
7:25 AM 71.6 °F - 64.4 °F 78% 30.15 インチ - 東北東 2.3 Mph - N/A  
7:55 AM 71.6 °F - 62.6 °F 73% 30.15 インチ - 変数 2.3 Mph - N/A  
8:00 AM 73 °F - 62 °F 59% 30.16 インチ 22 マイル 東南東 4.5 Mph - -   所により曇
8:25 AM 73.4 °F - 60.8 °F 65% 30.15 インチ - 東南東 3.5 Mph - N/A  
8:55 AM 75.2 °F - 62.6 °F 65% 30.15 インチ - 東南東 3.5 Mph - N/A  
9:00 AM 75 °F - 62 °F 54% 30.16 インチ 17 マイル 南東 4.5 Mph - -   所により曇
9:25 AM 77.0 °F - 62.6 °F 61% 30.15 インチ 6.2 マイル 変数 3.5 Mph - N/A   所により曇
9:55 AM 78.8 °F - 62.6 °F 57% 30.15 インチ 6.2 マイル 3.5 Mph - N/A   所により曇
10:00 AM 78 °F - 60 °F 44% 30.15 インチ 22 マイル 東北東 2.2 Mph - -  
10:25 AM 78.8 °F - 60.8 °F 54% 30.12 インチ 6.2 マイル 3.5 Mph - N/A   所により曇
10:55 AM 80.6 °F 81.8 °F 62.6 °F 54% 30.12 インチ 6.2 マイル 東南東 3.5 Mph - N/A   所により曇
11:00 AM 80 °F - 63 °F 46% 30.14 インチ 16 マイル 東南東 4.5 Mph - -  
11:25 AM 80.6 °F 81.1 °F 59.0 °F 48% 30.12 インチ 6.2 マイル 南東 4.6 Mph - N/A   所により曇
11:55 AM 80.6 °F 81.5 °F 60.8 °F 51% 30.12 インチ 6.2 マイル 変数 3.5 Mph - N/A   所により曇
12:00 PM 81 °F - 60 °F 38% 30.14 インチ 19 マイル 東南東 4.5 Mph - -   やや曇
12:25 PM 80.6 °F 81.5 °F 60.8 °F 51% 30.12 インチ 6.2 マイル 北西 3.5 Mph - N/A   所により曇
12:55 PM 82.4 °F 83.4 °F 62.6 °F 51% 30.12 インチ 6.2 マイル 変数 3.5 Mph - N/A   所により曇
1:00 PM 82 °F - 61 °F 38% 30.12 インチ 19 マイル 東北東 6.7 Mph - -   やや曇
1:25 PM 82.4 °F 83.4 °F 62.6 °F 51% 30.09 インチ 6.2 マイル 北北東 4.6 Mph - N/A   所により曇
1:55 PM 84.2 °F 84.4 °F 60.8 °F 45% 30.09 インチ 6.2 マイル 変数 3.5 Mph - N/A   所により曇
2:00 PM 83 °F - 60 °F 36% 30.11 インチ 22 マイル 東南東 4.5 Mph - -   所により曇
2:25 PM 84.2 °F 84.4 °F 60.8 °F 45% 30.09 インチ - 4.6 Mph - N/A  
2:55 PM 84.2 °F 84.4 °F 60.8 °F 45% 30.09 インチ - 変数 2.3 Mph - N/A  
3:00 PM 84 °F - 61 °F 35% 30.09 インチ 19 マイル 南南東 4.5 Mph - -  
3:25 PM 84.2 °F 83.8 °F 59.0 °F 42% 30.06 インチ - 東南東 3.5 Mph - N/A  
3:55 PM 86.0 °F 86.1 °F 60.8 °F 43% 30.06 インチ - 南南東 2.3 Mph - N/A  
4:00 PM 85 °F - 63 °F 37% 30.07 インチ 17 マイル 東南東 4.5 Mph - -   やや曇
4:25 PM 86.0 °F 86.1 °F 60.8 °F 43% 30.06 インチ - 変数 2.3 Mph - N/A  
4:55 PM 84.2 °F 84.4 °F 60.8 °F 45% 30.06 インチ - 南南西 3.5 Mph - N/A  
5:00 PM 85 °F - 64 °F 40% 30.06 インチ 19 マイル 西 4.5 Mph - -   所により曇
5:25 PM 84.2 °F 85.6 °F 64.4 °F 51% 30.04 インチ - 北西 13.8 Mph - N/A  
5:55 PM 82.4 °F 83.9 °F 64.4 °F 54% 30.04 インチ - 北西 15.0 Mph - N/A  
6:00 PM 82 °F - 64 °F 45% 30.06 インチ 19 マイル 北北西 13.4 Mph - -   所により曇
6:25 PM 82.4 °F 83.9 °F 64.4 °F 54% 30.04 インチ - 北西 13.8 Mph - N/A  
6:55 PM 82.4 °F 83.4 °F 62.6 °F 51% 30.04 インチ - 北北西 11.5 Mph - N/A  
7:00 PM 82 °F - 63 °F 43% 30.05 インチ 22 マイル 11.2 Mph - -   所により曇
7:25 PM 80.6 °F 82.3 °F 64.4 °F 58% 30.04 インチ - 北北西 12.7 Mph - N/A  
7:55 PM 80.6 °F 81.8 °F 62.6 °F 54% 30.04 インチ - 12.7 Mph - N/A  
8:00 PM 80 °F - 64 °F 48% 30.05 インチ 22 マイル 11.2 Mph - -   所により曇
8:25 PM 78.8 °F - 62.6 °F 57% 30.04 インチ - 10.4 Mph - N/A  
8:55 PM 78.8 °F - 62.6 °F 57% 30.04 インチ - 北北東 10.4 Mph - N/A  
9:00 PM 77 °F - 62 °F 51% 30.05 インチ 25 マイル 北北東 11.2 Mph - -   所により曇
9:25 PM 77.0 °F - 62.6 °F 61% 30.04 インチ - 北北東 9.2 Mph - N/A  
9:55 PM 75.2 °F - 62.6 °F 65% 30.04 インチ - 北北東 9.2 Mph - N/A  
10:00 PM 75 °F - 63 °F 58% 30.06 インチ 25 マイル 北北東 8.9 Mph - -   所により曇
10:25 PM 75.2 °F - 62.6 °F 65% 30.04 インチ - 北北東 9.2 Mph - N/A  
10:55 PM 73.4 °F - 62.6 °F 69% 30.04 インチ - 北北東 5.8 Mph - N/A  
11:00 PM 72 °F - 62 °F 64% 30.06 インチ 25 マイル 北北東 4.5 Mph - -   所により曇
11:25 PM 71.6 °F - 62.6 °F 73% 30.04 インチ - 北北東 6.9 Mph - N/A  
11:55 PM 71.6 °F - 60.8 °F 69% 30.04 インチ - 北北東 5.8 Mph - N/A